Regional Weather Roundup
Issued by NWS

Home | Current Version | Previous Version | Graphics & Text | Print | Product List | Glossary On
Versions: 1 2 3 4 5 6 7 8 9 10 11 12 13 14 15 16 17 18 19 20 21 22 23 24 25 26 27 28 29 30 31 32 33 34 35 36 37 38 39 40 41 42 43 44 45 46 47 48 49 50
000
ASUS43 KLOT 101408
RWRIL

ILLINOIS REGIONAL WEATHER ROUNDUP
NATIONAL WEATHER SERVICE CHICAGO/ROMEOVILLE IL
800 AM CST WED FEB 10 2016

NOTE: "FAIR" INDICATES FEW OR NO CLOUDS BELOW 12,000 FEET WITH NO
SIGNIFICANT WEATHER AND/OR OBSTRUCTIONS TO VISIBILITY.

* THESE STATIONS ARE NOT UNDER NWS QUALITY CONTROL. THEY ALSO MAY NOT
  REPORT WEATHER SUCH AS PRECIPITATION OR FOG.

ILZ001-002-007-009-015-016-024-101500-
NORTHWEST ILLINOIS

CITY           SKY/WX    TMP DP  RH WIND       PRES   REMARKS
MOLINE         PTCLDY     9  -1  64 NW10      30.12S WCI  -5
STERLING*      CLEAR      9   0  66 NW10      30.06R WCI  -6
SAVANNA*       PTCLDY     9   0  65 NW8       30.10R WCI  -3
$$

ILZ003-004-008-010-011-017-018-101500-
NORTH CENTRAL ILLINOIS

CITY           SKY/WX    TMP DP  RH WIND       PRES   REMARKS
ROCKFORD       PTCLDY     7  -2  66 NW12      30.06R WCI  -8
FREEPORT*      CLEAR      5  -3  71 NW12      30.08R WCI -11
ROCHELLE*      CLEAR      8   0  71 NW10      30.06R WCI  -7
DE KALB*       CLOUDY     6   0  75 NW12      30.03R WCI  -9
$$

ILZ005-006-012>014-019>023-101500-
NORTHEAST ILLINOIS

CITY           SKY/WX    TMP DP  RH WIND       PRES   REMARKS
CHICAGO-OHARE  MOSUNNY   10   1  67 W14       30.01R WCI  -6
CHICAGO-MIDWAY MOSUNNY   11   0  61 NW14      30.02R WCI  -5
AURORA         CLOUDY     9   2  73 W16       30.04R WCI  -8
LANSING*       SUNNY     12   1  63 W13       30.02R WCI  -3
JOLIET*        MOSUNNY   11   3  71 W7        30.05R WCI   0
WAUKEGAN       MOSUNNY    9   0  67 NW8       29.99R WCI  -3
DUPAGE AIRPORT SUNNY      9   0  67 NW8       30.01R WCI  -3
KANKAKEE*      MOSUNNY   10   2  71 W12       30.05R WCI  -4
WHEELING       SUNNY     10   0  63 NW12      30.02R WCI  -5
MORRIS*        MOSUNNY   10   2  73 NW14      30.01S WCI  -7
ROMEOVILLE*    MOSUNNY    9   2  73 NW10      30.04R WCI  -5
NORTHERLY ISL    N/A     14   4  64 W10         N/A  WCI   1
$$

LMZ740>746-101500-
SOUTHERN LAKE MICHIGAN

STATION/POSITION SKY/WX   TEMP    WIND        PRES    VSBY  WAVE
                          AIR SEA DIR/SP/G                  HT/PER
                          (F)     (DEG/KT/KT) (MB)    (MI)  (FT/S)
HARRISON CRIB              13     310/ 18/ 20   N/A
BURNHAM HARBOR             14     270/  6/ 14   N/A
CALUMET HARBOR             11     290/ 10/ 14 1015.0F
BURNS HARBOR               16     300/ 20     1015.2R
MICHIGAN CITY              18     270/ 23/ 28   N/A
$$

ILZ025>027-034>036-040-047-049-050-058-095>099-101500-
WEST-CENTRAL ILLINOIS

CITY           SKY/WX    TMP DP  RH WIND       PRES   REMARKS
QUINCY         CLOUDY    14   5  67 NW9       30.14F WCI   2
GALESBURG*     PTCLDY     9   4  79 W10       30.11S WCI  -5
MACOMB*        PTCLDY    10   6  82 NW7       30.15F WCI  -1
JACKSONVILLE*  PTCLDY    13   6  73 W6        30.15S WCI   4
PITTSFIELD*    CLOUDY    15   8  73 W5        30.15F WCI   7
$$

ILZ028>032-037-038-041>044-048-051>054-059>061-101500-
CENTRAL ILLINOIS

CITY           SKY/WX    TMP DP  RH WIND       PRES   REMARKS
PONTIAC        SUNNY     10   4  77 W10       30.08R WCI  -4
BLOOMINGTON    CLOUDY    10   2  70 W13       30.08R WCI  -5
DECATUR        SUNNY     11   3  70 NW10      30.11R WCI  -3
PEORIA         CLEAR      9   1  70 W7        30.12R WCI  -2
LACON*         PTCLDY     9   0  66 NW12      30.10S WCI  -6
LINCOLN*       SUNNY     11   5  76 W8        30.12S WCI  -1
SPRINGFIELD    SUNNY     12   4  70 W8        30.14R WCI   0
TAYLORVILLE    SUNNY     12   5  73 NW13      30.14R WCI  -3
$$

ILZ033-039-045-046-055>057-062-063-101500-
EAST-CENTRAL ILLINOIS

CITY           SKY/WX    TMP DP  RH WIND       PRES   REMARKS
CHAMPAIGN      MOSUNNY    9   3  77 W13       30.08R WCI  -7
RANTOUL*       SUNNY     11   4  74 W12       30.07R WCI  -3
MATTOON        MOSUNNY   10   3  73 W16       30.09R WCI  -7
PARIS*         SUNNY      9   4  81 W12       30.09R WCI  -6
$$

ILZ079-100>102-101500-
SOUTHWEST ILLINOIS

CITY           SKY/WX    TMP DP  RH WIND       PRES   REMARKS
ALTON          MOSUNNY   16   7  67 W7        30.18R WCI   6
BELLEVILLE     SUNNY     17   9  71 W9        30.18R WCI   6
CAHOKIA*       SUNNY     18   6  59 W9        30.19R WCI   7
SPARTA*        MOSUNNY   15   7  71 W5        30.20R WCI   7
$$

ILZ064>066-069>071-074>076-080>082-084>086-088>090-092>094-101500-
SOUTH-CENTRAL ILLINOIS

CITY           SKY/WX    TMP DP  RH WIND       PRES   REMARKS
CARBONDALE     SUNNY     16   6  65 W6        30.20R WCI   7
EFFINGHAM*     MOSUNNY   12   6  77 W10       30.16R WCI  -1
MARION         MOSUNNY   16   9  73 W6        30.21R WCI   7
MT. VERNON     SUNNY     16   3  57 W7        30.17R WCI   6
CENTRALIA*     SUNNY     16   8  70 NW10      30.16R WCI   3
SALEM*         MOSUNNY   15   5  65 NW8       30.15R WCI   4
METROPOLIS*    MOSUNNY   17  10  74 W3        30.21S
$$

ILZ067-068-072-073-078-083-087-091-101500-
SOUTHEAST ILLINOIS

CITY           SKY/WX    TMP DP  RH WIND       PRES   REMARKS
LAWRENCEVILLE  SUNNY     13   5  70 W12       30.14R WCI  -1
FLORA*         SUNNY     15   7  69 W10G16    30.17R WCI   3
FAIRFIELD*     MOSUNNY   15   7  70 CALM      30.17R
HARRISBURG*    MOSUNNY   16   7  67 W7        30.19R WCI   7
ROBINSON*      SUNNY     11   5  77 W9        30.14R WCI  -1
CARMI*         MOSUNNY   15   8  73 W8        30.17R WCI   4
$$

ABBREVIATIONS USED IN REMARKS
   TC - TEMPERATURE IN CELSIUS
  WCI - WIND CHILL INDEX
   HX - HEAT INDEX
  VSB - VISIBILITY
$$




USA.gov is the U.S. government's official web portal to all federal, state and local government web resources and services.